Powrót do katalogu

STARLINK-5499

AktywnyŁącznośćVLEO
NORAD 55764·PAYLOAD·🇺🇸 United States

Wystrzelony Mar 3, 2023 z Vandenberg Space Force Base

Loading…

Następne Przeloty (najbliższe 24 godziny)

TLE

ŚwieżeSource: CelesTrak SupGP

Epoka: Sep 15, 2026, 02:37 UTC

1 55764C 23028Z   26258.10951389 -.00014164  00000+0 -11870-2 0  2585
2 55764  69.9995 106.9964 0002837 274.1720  65.6054 14.98337415    16

Śledź STARLINK-5499 w czasie rzeczywistym z AllMySat

Download on the App Store